Location: Pagani
(40.7500°N, 14.6167°E)
Time: 11:09:16
(UTC+00:00)

Milstar 3 - Pass Details

Date: 15 May 2026
Orbit: 1097 x 5148 km, 28.2° (Epoch: 6 June)

Event Time Altitude Azimuth Distance (km) Brightness Sun altitude
Rises 20:05:00 0° 258° (WSW) 3,898 6.1 -18.0°
Reaches altitude 10° 20:08:10 10° 242° (WSW) 3,002 5.2 -18.4°
Maximum altitude 20:13:20 22° 193° (SSW) 2,502 4.3 -19.1°
Enters shadow 20:15:14 20° 174° (S) 2,740 4.4 -19.3°
